Wind_Speed
15 14 14 15 13 14 14 15 16 18 16 17 16 15 14 13 11 8 7 6 7 8 6 8 11 15 10 13 20 14 11 9 6 11 12 8 6 5 6 7 7 8 10 11 10 9 8 9 10
16 16 16 15 15 14 16 16 15 16 16 18 17 16 14 13 11 9 9 8 7 7 7 9 12 12 11 10 15 15 9 10 5 4 11 8 6 4 6 7 8 9 9 8 9 9 10 11 12
18 17 17 16 16 13 18 15 14 15 15 17 17 17 16 15 13 12 9 10 9 10 10 11 14 11 12 14 13 10 6 4 6 7 5 5 3 3 4 5 6 7 7 7 8 9 10 10 11
18 17 17 16 15 15 18 16 13 15 14 15 15 15 15 14 14 14 13 9 10 12 11 11 11 11 12 11 11 11 12 10 7 4 3 3 3 3 4 4 5 7 8 10 10 11 11 11 10
18 17 16 16 15 17 17 15 14 14 12 12 12 14 13 13 13 12 12 12 11 11 13 14 14 12 12 13 11 11 10 9 8 7 4 4 5 6 6 7 8 9 9 10 10 11 11 12 12
18 17 17 16 15 17 15 15 13 14 12 11 10 12 10 11 11 11 11 11 11 12 12 12 13 13 14 14 13 12 11 9 8 6 5 5 5 6 7 7 7 8 9 10 10 10 11 12 12
19 19 18 16 13 14 14 13 13 11 9 10 8 8 9 10 9 9 8 9 10 11 11 11 11 11 12 10 11 10 10 9 7 6 5 5 5 6 7 8 7 8 9 10 11 11 12 13 12
21 20 18 16 13 12 12 12 12 12 9 9 8 6 8 8 8 7 7 7 7 8 8 8 8 9 9 8 7 7 6 6 4 3 2 3 3 4 5 7 7 8 9 9 10 10 10 11 11
23 21 18 16 14 11 11 12 10 11 11 9 8 6 5 6 6 6 5 5 6 6 6 6 6 6 6 6 6 4 3 2 1 1 2 4 6 7 8 9 10 10 10 12 12 12 12 13 14
23 21 19 16 14 12 10 11 9 9 11 11 9 7 6 4 2 4 5 4 3 4 4 4 4 4 4 3 2 2 1 0 1 2 4 5 7 8 10 11 13 13 14 16 16 16 15 16 16
22 21 20 18 16 13 11 10 9 8 9 11 8 7 5 5 4 2 2 3 3 3 3 3 3 3 3 2 2 0 1 2 3 4 5 7 8 9 10 12 13 13 15 16 18 18 19 19 19
23 22 20 18 16 14 12 10 8 6 6 9 8 6 5 3 3 3 3 2 2 2 2 3 2 3 3 2 2 1 1 3 6 7 7 9 10 11 11 13 14 15 15 16 17 19 21 22 21
26 24 22 20 18 15 12 11 9 7 5 5 6 6 6 6 3 2 2 2 1 2 2 2 2 2 2 2 1 1 2 4 7 8 9 11 12 13 13 14 15 16 17 18 19 21 21 22 23
27 25 23 21 19 17 14 13 10 9 9 8 6 5 6 7 7 5 4 2 2 2 1 1 1 1 2 1 0 1 2 4 6 9 10 11 13 14 16 18 19 20 21 22 23 24 25 26 26
28 25 24 22 20 18 17 15 14 12 12 10 8 8 9 8 8 8 8 7 6 5 4 3 2 1 1 2 3 4 5 6 7 8 10 11 13 14 16 18 19 20 22 25 27 28 29 30 31
30 28 25 23 22 20 19 17 18 15 15 12 12 10 12 13 11 12 12 11 10 9 8 8 7 7 7 7 9 9 9 9 8 9 11 12 14 15 17 18 19 20 21 23 26 29 30 31 33
32 28 26 26 24 23 22 21 20 19 17 16 15 15 16 15 16 15 15 15 15 13 13 13 12 11 11 11 13 13 12 11 10 10 11 13 15 17 19 21 22 22 23 24 26 27 28 30 32
30 29 29 29 28 26 25 25 24 23 21 20 18 17 18 18 19 17 18 19 19 18 17 16 16 16 14 14 15 15 14 14 15 15 15 15 16 17 18 21 24 25 26 27 28 30 31 30 31
36 34 32 31 30 29 28 27 27 26 23 25 22 22 21 21 22 20 21 22 20 20 21 21 19 20 18 18 18 17 17 17 18 19 20 21 21 21 23 22 24 25 26 28 30 31 32 34 36
37 34 33 32 31 31 29 26 28 28 26 26 26 27 25 25 26 24 22 22 23 23 24 22 24 22 21 20 21 19 21 21 22 23 23 24 25 26 27 28 28 30 30 30 31 31 32 33 35
36 34 33 33 32 31 29 25 26 28 26 27 29 30 28 27 28 26 25 26 25 26 27 27 26 25 25 24 23 24 24 25 27 28 29 29 29 30 31 31 32 34 36 36 36 37 37 36 36
36 35 35 35 34 33 30 28 26 27 27 28 30 29 30 30 30 30 29 27 29 30 30 30 30 29 29 29 28 29 29 29 31 32 33 34 36 36 37 37 37 37 40 41 41 41 42 42 40
38 36 37 37 36 35 31 33 26 27 29 31 30 31 31 32 32 32 32 31 32 33 35 34 34 34 34 35 34 34 34 35 36 37 37 38 39 41 43 44 45 44 44 45 46 47 48 48 48
40 39 39 38 38 36 33 33 28 28 28 30 31 31 32 32 33 34 34 35 35 36 36 37 38 39 39 40 39 40 40 41 41 43 43 43 44 46 48 49 50 50 49 49 49 49 49 50 51
41 41 39 39 39 38 35 34 32 31 29 28 30 32 32 33 32 34 36 39 39 39 39 40 42 43 44 44 44 44 45 46 48 48 49 50 51 52 53 52 53 52 51 51 52 53 53 54 54
38 39 38 40 40 40 39 37 37 33 32 32 31 31 32 34 35 36 36 38 41 42 42 43 44 46 47 48 48 48 49 51 52 53 53 54 54 54 55 55 54 55 55 54 55 54 55 56 57
41 42 41 40 40 41 41 39 38 37 35 34 33 33 34 35 37 38 39 40 42 44 45 47 48 48 49 49 50 52 53 54 55 55 55 54 54 55 55 56 56 57 56 56 57 56 54 55 55
44 44 44 44 43 43 42 41 42 42 41 40 39 37 37 37 37 39 41 42 45 46 47 48 50 51 51 53 54 55 56 54 53 54 56 57 57 55 55 55 56 56 56 56 57 55 54 55 56
49 50 49 47 47 47 47 47 48 46 45 44 44 44 44 44 44 44 44 44 44 45 46 46 47 49 51 53 52 53 53 53 54 54 55 56 55 54 54 55 54 55 56 56 56 56 58 61 64
53 53 53 53 52 52 51 50 51 52 51 50 50 51 51 50 48 48 48 49 49 50 51 53 53 54 54 54 54 54 54 55 55 55 54 54 54 54 54 55 54 54 55 56 58 60 62 61 59
Wind_Direction
146 140 141 129 133 130 117 103 95 88 87 84 81 80 78 79 75 72 84 116 178 177 169 142 164 177 189 201 190 192 200 201 220 242 225 235 251 246 267 267 271 279 288 293 287 283 281 282 277
153 147 149 141 141 133 114 105 102 99 94 89 88 86 81 78 75 73 75 82 105 138 143 121 138 147 188 164 174 192 194 198 187 234 247 244 223 246 269 281 286 291 291 287 289 283 278 276 270
160 156 146 145 144 133 117 108 109 106 99 94 91 87 82 75 70 66 67 74 83 94 124 125 122 132 151 139 144 152 150 208 240 183 194 204 229 262 274 292 291 291 289 284 280 278 273 271 271
162 153 149 149 147 136 118 116 111 104 96 96 93 89 84 81 75 70 66 74 74 80 94 120 117 111 113 122 119 129 128 130 116 126 172 183 168 197 224 233 253 266 267 269 268 269 271 271 267
162 161 154 152 150 134 125 120 113 101 97 96 91 92 87 84 79 76 73 70 71 72 85 97 107 114 118 117 123 117 114 109 108 116 134 164 201 220 232 237 243 250 254 257 265 274 278 280 281
157 156 150 146 148 132 129 125 118 109 102 98 92 91 93 92 88 86 84 81 79 79 78 90 99 103 106 109 111 114 113 120 128 140 159 184 198 205 222 233 233 245 254 265 272 276 282 283 286
156 149 146 146 144 136 136 132 125 115 115 105 96 95 94 95 92 95 95 92 92 91 88 89 94 95 100 112 114 120 126 130 138 156 175 196 212 225 235 244 250 260 267 271 277 280 284 286 283
157 153 151 151 155 151 147 138 125 124 113 103 98 95 104 107 106 102 99 103 102 99 98 95 95 99 102 99 94 102 107 107 125 148 196 239 258 271 280 280 286 287 288 290 289 291 291 289 288
161 159 158 157 159 162 155 145 141 132 120 106 95 84 89 110 119 119 111 106 105 104 107 105 101 95 97 101 103 97 92 83 81 324 297 300 303 304 299 299 297 301 304 302 300 301 298 295 291
164 162 163 162 164 165 159 143 142 133 126 123 106 84 64 58 88 112 115 115 112 109 110 108 106 106 97 95 102 107 84 310 308 321 314 310 306 307 303 305 304 306 309 306 303 300 295 290 290
170 167 169 166 166 169 165 146 139 143 140 136 126 107 79 58 51 48 88 120 133 130 128 128 123 115 100 87 71 39 292 297 307 314 319 316 315 312 310 306 304 305 302 301 302 300 297 296 297
179 176 176 172 173 179 174 166 163 159 158 152 147 140 117 95 56 69 61 68 93 121 127 133 136 124 114 118 116 99 303 300 300 304 304 303 309 310 310 309 306 305 305 304 303 300 298 296 299
185 182 185 182 185 187 185 190 185 185 186 187 172 176 164 152 155 132 147 145 148 137 129 116 113 122 132 147 161 212 273 277 285 291 297 299 301 301 302 301 299 300 301 300 300 299 300 300 299
193 188 191 193 195 194 197 207 203 202 216 217 205 202 205 188 181 182 205 209 198 198 207 198 178 131 122 110 39 324 300 294 297 298 297 300 301 301 301 299 299 300 300 298 297 299 300 301 301
199 197 199 204 206 206 208 215 225 212 227 238 235 235 234 211 208 195 212 209 221 234 230 238 243 247 265 280 290 293 290 288 291 296 297 300 299 299 299 299 300 301 303 304 305 304 301 301 300
205 204 206 212 213 216 222 221 237 228 236 237 246 249 251 249 232 218 220 225 233 238 238 235 253 269 281 288 293 294 290 287 286 288 296 303 306 306 307 306 307 308 308 306 302 302 303 301 299
210 212 215 220 223 224 229 229 235 241 238 242 243 247 253 251 253 243 232 230 235 240 244 249 251 258 271 286 293 297 295 294 293 292 301 308 310 314 314 313 312 310 307 305 305 305 303 300 299
218 221 225 227 230 232 236 240 240 242 245 243 244 246 251 257 252 252 243 235 233 240 246 250 253 260 268 280 286 287 285 291 292 294 297 300 305 308 314 318 318 317 315 311 307 305 305 303 300
223 224 229 234 236 238 238 242 246 247 246 249 246 247 246 253 258 254 250 245 239 241 248 252 254 259 267 275 275 278 283 288 291 291 293 295 300 302 306 307 308 310 311 311 308 305 304 302 302
225 228 232 236 239 242 244 244 251 250 247 249 250 248 248 248 255 255 258 252 246 247 248 249 253 261 267 273 273 276 280 284 286 289 291 294 297 298 298 300 302 302 304 306 307 307 306 305 305
229 230 232 236 240 244 246 244 248 252 249 247 248 251 249 250 254 256 254 253 252 248 247 250 256 263 268 273 275 277 280 283 287 286 291 293 294 297 298 298 298 300 302 304 305 304 304 305 307
230 231 235 237 241 245 247 248 248 252 253 249 251 250 252 251 253 255 255 252 250 253 256 257 260 264 268 271 274 275 281 284 283 286 288 290 293 295 296 297 297 298 301 304 304 304 305 306 303
231 232 235 238 240 243 247 253 241 248 250 255 253 253 252 252 252 255 257 255 251 251 254 258 264 267 269 271 273 277 279 280 283 286 287 287 288 291 294 296 297 300 300 300 301 302 303 305 305
231 232 235 237 241 245 247 253 249 243 246 252 254 256 256 256 256 257 257 258 257 255 255 258 262 265 268 270 272 275 278 281 283 284 285 287 289 290 292 293 294 294 295 296 297 298 300 299 299
231 234 237 239 240 245 245 248 253 248 243 246 250 255 258 259 258 258 260 260 259 260 261 263 265 267 269 271 273 276 278 280 281 283 285 286 287 287 287 288 288 289 291 292 293 295 296 295 296
237 239 242 243 243 244 246 246 248 253 252 250 247 248 251 254 259 262 263 262 262 262 264 265 267 268 271 273 275 277 277 278 279 281 281 280 280 281 283 284 285 288 291 291 290 290 289 290 292
237 240 243 245 246 246 247 248 253 256 257 258 255 256 257 258 259 259 260 263 264 265 267 268 268 269 270 271 273 274 276 277 277 278 279 280 280 282 284 285 285 286 286 286 286 286 287 288 290
240 241 243 245 247 249 251 252 254 257 260 262 264 263 262 260 259 261 262 263 263 263 263 265 266 267 268 269 271 273 275 276 278 280 282 283 284 283 283 281 282 283 284 284 285 286 287 288 289
245 245 247 249 250 253 254 255 258 259 261 264 268 270 269 268 268 267 266 266 266 266 267 268 269 270 272 274 275 275 276 276 277 278 278 279 281 281 281 281 281 282 284 285 286 287 288 290 292
247 246 246 246 248 251 254 256 259 261 263 264 265 266 268 270 270 271 273 272 272 273 274 275 275 275 275 275 276 277 278 278 278 278 278 279 279 280 280 280 280 281 284 283 283 286 288 289 289
Height
5838 5841 5843 5845 5851 5849 5849 5849 5848 5847 5849 5848 5847 5848 5848 5848 5849 5851 5849 5847 5848 5849 5849 5848 5849 5851 5853 5854 5859 5862 5864 5865 5867 5869 5870 5871 5872 5873 5875 5875 5876 5877 5876 5877 5877 5877 5876 5875 5875
5838 5840 5844 5845 5850 5850 5849 5849 5850 5851 5851 5849 5850 5850 5851 5851 5851 5851 5851 5849 5849 5849 5850 5849 5850 5851 5854 5854 5857 5861 5862 5864 5865 5867 5869 5870 5871 5872 5874 5875 5875 5875 5875 5875 5876 5875 5875 5875 5875
5838 5841 5843 5846 5849 5850 5849 5851 5853 5853 5854 5852 5853 5853 5852 5853 5853 5853 5853 5852 5852 5850 5850 5851 5851 5853 5854 5855 5857 5859 5861 5863 5864 5866 5867 5869 5871 5872 5874 5874 5875 5875 5875 5875 5874 5874 5875 5874 5873
5838 5841 5844 5847 5849 5850 5849 5852 5854 5854 5855 5855 5855 5855 5855 5855 5855 5855 5855 5855 5854 5853 5853 5852 5853 5855 5856 5857 5858 5860 5861 5863 5864 5865 5867 5869 5871 5872 5873 5873 5873 5874 5874 5874 5873 5873 5873 5873 5872
5838 5841 5844 5847 5849 5850 5850 5852 5854 5854 5856 5857 5857 5857 5858 5857 5858 5858 5858 5858 5857 5857 5856 5856 5856 5857 5858 5858 5860 5861 5862 5864 5865 5867 5869 5870 5871 5872 5872 5872 5872 5873 5872 5872 5872 5872 5872 5872 5871
5838 5841 5844 5847 5850 5850 5852 5853 5854 5854 5857 5858 5859 5859 5860 5860 5860 5861 5860 5860 5861 5860 5860 5859 5859 5859 5860 5860 5861 5862 5863 5865 5866 5867 5869 5870 5871 5871 5872 5872 5872 5872 5872 5871 5871 5871 5871 5870 5870
5838 5841 5844 5847 5850 5851 5853 5853 5855 5856 5857 5859 5860 5861 5862 5862 5861 5862 5862 5862 5862 5862 5862 5863 5862 5862 5862 5863 5863 5864 5864 5866 5867 5869 5870 5871 5872 5872 5872 5872 5872 5871 5871 5871 5871 5869 5870 5870 5869
5837 5840 5844 5846 5849 5852 5854 5854 5855 5857 5859 5859 5861 5862 5863 5863 5863 5863 5864 5864 5864 5864 5864 5864 5865 5865 5865 5865 5865 5866 5867 5867 5869 5870 5870 5872 5872 5872 5872 5871 5871 5871 5871 5871 5870 5869 5868 5868 5868
5837 5840 5843 5846 5849 5853 5854 5855 5856 5858 5858 5860 5862 5862 5863 5864 5865 5865 5865 5865 5865 5865 5865 5866 5865 5865 5866 5866 5867 5867 5868 5868 5870 5870 5871 5872 5872 5871 5872 5871 5871 5871 5869 5870 5869 5868 5867 5867 5867
5835 5839 5842 5846 5849 5852 5854 5855 5857 5859 5860 5861 5862 5863 5864 5865 5866 5867 5867 5867 5867 5866 5866 5867 5867 5867 5867 5867 5868 5869 5869 5870 5871 5871 5871 5872 5872 5872 5871 5870 5870 5869 5868 5868 5867 5866 5866 5865 5864
5835 5838 5841 5845 5848 5851 5853 5854 5856 5859 5860 5862 5863 5864 5865 5866 5867 5867 5868 5869 5869 5868 5868 5868 5868 5868 5868 5869 5869 5870 5871 5871 5871 5871 5871 5872 5871 5871 5870 5869 5868 5867 5866 5866 5865 5864 5863 5862 5861
5833 5836 5840 5843 5847 5851 5853 5854 5856 5858 5860 5861 5863 5864 5865 5866 5868 5868 5869 5870 5870 5870 5870 5869 5869 5869 5869 5869 5870 5870 5870 5871 5871 5871 5871 5871 5870 5870 5869 5867 5866 5865 5865 5864 5863 5861 5860 5859 5858
5831 5835 5837 5841 5845 5849 5852 5854 5856 5859 5859 5860 5862 5864 5864 5866 5867 5869 5869 5869 5870 5870 5870 5871 5871 5870 5870 5870 5870 5870 5870 5870 5870 5870 5870 5869 5869 5868 5867 5865 5864 5863 5862 5861 5860 5858 5857 5856 5855
5829 5833 5836 5839 5843 5846 5849 5853 5855 5858 5858 5860 5861 5863 5865 5865 5865 5867 5868 5870 5870 5870 5871 5871 5870 5870 5870 5870 5870 5870 5870 5869 5869 5868 5868 5867 5867 5866 5865 5863 5862 5860 5859 5858 5857 5855 5854 5853 5852
5826 5830 5834 5837 5841 5844 5847 5851 5853 5856 5857 5859 5860 5861 5863 5865 5865 5866 5867 5868 5869 5869 5870 5871 5872 5871 5871 5870 5870 5870 5869 5869 5868 5867 5866 5865 5864 5863 5862 5860 5859 5858 5857 5855 5853 5852 5851 5849 5847
5822 5827 5831 5835 5838 5842 5845 5847 5850 5854 5855 5858 5860 5860 5862 5863 5864 5864 5865 5866 5867 5868 5869 5868 5869 5870 5870 5870 5870 5869 5868 5867 5866 5865 5864 5862 5861 5859 5858 5856 5855 5854 5853 5851 5849 5847 5845 5843 5841
5819 5825 5829 5831 5835 5838 5841 5844 5847 5850 5853 5854 5857 5858 5858 5860 5861 5862 5863 5864 5864 5865 5866 5866 5866 5866 5867 5867 5867 5866 5865 5864 5863 5862 5861 5860 5858 5856 5855 5853 5851 5849 5848 5846 5844 5843 5841 5838 5836
5819 5821 5824 5827 5831 5834 5837 5839 5843 5845 5849 5851 5853 5855 5855 5857 5857 5859 5860 5860 5861 5862 5863 5863 5863 5864 5864 5864 5863 5863 5862 5862 5861 5860 5859 5858 5857 5855 5853 5850 5847 5845 5843 5841 5839 5837 5835 5833 5830
5811 5815 5819 5823 5827 5830 5833 5835 5837 5840 5844 5846 5848 5850 5851 5851 5852 5854 5855 5857 5859 5859 5859 5860 5861 5860 5861 5860 5860 5860 5859 5859 5858 5857 5856 5854 5852 5851 5849 5847 5844 5841 5839 5837 5834 5832 5829 5826 5823
5806 5811 5816 5818 5821 5824 5827 5831 5832 5835 5839 5841 5843 5843 5845 5847 5847 5849 5852 5853 5854 5855 5855 5855 5855 5856 5857 5857 5857 5857 5856 5855 5854 5852 5850 5849 5848 5846 5845 5843 5840 5837 5834 5833 5830 5826 5823 5820 5817
5802 5806 5810 5813 5815 5819 5822 5826 5828 5829 5833 5834 5835 5837 5840 5841 5842 5844 5846 5848 5849 5849 5850 5850 5850 5851 5852 5852 5852 5852 5852 5851 5849 5847 5845 5844 5841 5840 5838 5836 5834 5831 5828 5826 5823 5819 5816 5813 5810
5797 5800 5803 5806 5811 5813 5816 5820 5824 5825 5826 5826 5829 5832 5833 5835 5836 5838 5840 5842 5843 5844 5844 5845 5845 5846 5846 5846 5846 5845 5845 5845 5843 5841 5838 5837 5835 5833 5830 5828 5826 5824 5820 5816 5814 5811 5807 5804 5801
5790 5793 5797 5800 5803 5807 5811 5812 5820 5819 5819 5820 5823 5825 5827 5828 5830 5831 5833 5835 5837 5838 5838 5838 5839 5839 5839 5839 5839 5838 5838 5836 5835 5834 5832 5830 5827 5825 5823 5820 5817 5815 5812 5808 5804 5801 5798 5795 5792
5782 5786 5789 5792 5796 5800 5804 5806 5812 5813 5814 5814 5816 5818 5819 5821 5823 5825 5826 5827 5828 5830 5831 5832 5832 5831 5831 5831 5832 5831 5829 5828 5827 5825 5823 5821 5819 5816 5813 5811 5809 5806 5802 5799 5796 5793 5789 5784 5781
5775 5779 5782 5786 5788 5793 5797 5800 5804 5804 5808 5809 5810 5811 5813 5815 5816 5818 5818 5819 5821 5822 5824 5825 5825 5824 5824 5823 5823 5822 5821 5820 5818 5816 5815 5812 5809 5807 5804 5801 5798 5795 5793 5789 5785 5782 5777 5773 5770
5769 5773 5776 5778 5781 5786 5788 5791 5793 5797 5800 5802 5804 5805 5807 5807 5808 5809 5811 5812 5813 5814 5815 5816 5816 5816 5815 5814 5814 5812 5811 5809 5808 5806 5804 5801 5799 5795 5793 5790 5787 5784 5781 5777 5773 5771 5767 5762 5758
5761 5765 5770 5771 5774 5777 5780 5785 5787 5788 5791 5794 5797 5799 5801 5801 5801 5802 5803 5804 5805 5806 5806 5806 5806 5806 5806 5804 5803 5802 5800 5798 5796 5794 5792 5789 5786 5784 5782 5779 5777 5773 5768 5765 5761 5759 5756 5751 5747
5752 5758 5759 5762 5766 5770 5773 5776 5778 5780 5782 5784 5787 5789 5791 5792 5793 5794 5795 5795 5795 5795 5795 5795 5795 5795 5794 5793 5792 5790 5789 5787 5784 5782 5780 5778 5775 5772 5769 5766 5763 5760 5756 5752 5748 5746 5742 5738 5735
5744 5747 5751 5755 5759 5762 5765 5767 5769 5772 5774 5774 5775 5777 5779 5781 5783 5783 5783 5784 5785 5785 5785 5784 5784 5784 5782 5780 5779 5777 5776 5774 5772 5769 5766 5764 5761 5758 5756 5753 5750 5747 5743 5739 5735 5732 5728 5724 5720
5732 5737 5740 5741 5748 5751 5754 5759 5760 5760 5762 5764 5765 5765 5767 5767 5769 5772 5773 5773 5773 5773 5773 5772 5772 5771 5769 5767 5765 5763 5762 5760 5758 5755 5753 5751 5749 5745 5742 5739 5736 5733 5730 5726 5722 5719 5714 5710 5706